Home   Weather   Gotha   Past weeks

Flag for Germany Past Weather in Gotha, Thuringia, Germany — Yesterday and Last 2 Weeks

Now
52 °F

Clear.


Feels Like: 49 °F
Forecast: 59 / 70 °F
Wind: 9 mph from Southwest

Location: Erfurt-Bindersleben

Current Time: Sep 28, 2016 at 3:49:20 AM

Latest Report: Sep 28, 2016 at 3:20 AM


Visibility: 10 mi

Pressure: 30.30 "Hg

Humidity: 94%

Dew Point: 50 °F

Location of GothaLocation

Past Weather in Gotha — Graph

°F

Gotha Temperature Yesterday

Maximum temperature yesterday: 70 °F (at 3:20 PM)
Minimum temperature yesterday: 54 °F (at 5:50 AM)
Average temperature yesterday: 61 °F

High & Low Weather Summary for the Past Weeks

 TemperatureHumidityPressure
High88 °F (Sep 13, 1:50 PM)100% (Sep 17, 2:20 AM)30.33 "Hg (Sep 17, 2:20 AM)
Low43 °F (Sep 21, 5:50 AM)29% (Sep 13, 3:20 PM)29.89 "Hg (Sep 15, 3:20 PM)
Average61 °F75%30.09 "Hg
* Reported Sep 13 2:20 AM — Sep 28 2:20 AM, Gotha, Weather by CustomWeather, © 2016

Note: Actual official high and low records may vary slightly from our data, if they occured in-between our weather recording intervals... More about our weather records

Advertising

Gotha Weather History for the Previous 24 Hours

Scroll right to see more
 ConditionsComfort  
Time TempWeatherWind HumidityBarometerVisibility
2:20 AM
Wed, Sep 28
54 °FClear.9 mph94%30.30 "Hg10 mi
1:50 AM54 °FClear.9 mph94%30.33 "Hg10 mi
1:20 AM54 °FClear.9 mph94%30.33 "Hg10 mi
12:50 AM54 °FClear.9 mph94%30.33 "Hg10 mi
12:20 AM54 °FClear.9 mph100%30.33 "Hg10 mi
11:50 PM
Tue, Sep 27
54 °FClear.8 mph100%30.33 "Hg10 mi
11:20 PM55 °FClear.9 mph94%30.33 "Hg10 mi
10:50 PM55 °FClear.8 mph94%30.33 "Hg10 mi
10:20 PM55 °FClear.7 mph94%30.33 "Hg10 mi
9:50 PM57 °FClear.7 mph88%30.33 "Hg10 mi
9:20 PM59 °FClear.7 mph82%30.33 "Hg10 mi
8:50 PM61 °FClear.7 mph77%30.33 "Hg10 mi
8:20 PM63 °FClear.5 mph73%30.33 "Hg10 mi
7:50 PM64 °FClear.3 mph68%30.33 "Hg10 mi
7:20 PM64 °FPassing clouds.2 mph68%30.33 "HgN/A
6:50 PM66 °FPassing clouds.No wind64%30.33 "HgN/A
6:20 PM68 °FPassing clouds.No wind60%30.30 "HgN/A
5:50 PM70 °FPassing clouds.1 mph57%30.30 "HgN/A
5:20 PM70 °FScattered clouds.1 mph60%30.30 "HgN/A
4:50 PM70 °FPassing clouds.1 mph57%30.30 "HgN/A
4:20 PM68 °FPassing clouds.1 mph60%30.30 "HgN/A
3:50 PM70 °FPassing clouds.3 mph57%30.30 "HgN/A
3:20 PM70 °FPassing clouds.3 mph60%30.30 "HgN/A
2:50 PM68 °FPassing clouds.2 mph64%30.30 "HgN/A
2:20 PM68 °FPassing clouds.6 mph64%30.30 "HgN/A
1:50 PM68 °FScattered clouds.5 mph64%30.30 "HgN/A
1:20 PM66 °FScattered clouds.2 mph68%30.30 "HgN/A
12:50 PM66 °FScattered clouds.2 mph73%30.30 "HgN/A
12:20 PM64 °FBroken clouds.2 mph73%30.30 "HgN/A
11:50 AM63 °FPartly sunny.3 mph83%30.30 "HgN/A
11:20 AM61 °FBroken clouds.3 mph83%30.30 "HgN/A
10:50 AM61 °FBroken clouds.3 mph83%30.30 "HgN/A
10:20 AM59 °FPartly sunny.6 mph88%30.30 "HgN/A
9:50 AM59 °FBroken clouds.7 mph88%30.30 "Hg4 mi
9:20 AM57 °FBroken clouds.5 mph94%30.30 "Hg4 mi
8:50 AM55 °FBroken clouds.2 mph100%30.27 "HgN/A
8:20 AM55 °FRain. Partly sunny.3 mph100%30.27 "HgN/A
7:50 AM55 °FRain. Light fog.6 mph100%30.27 "HgN/A
7:20 AM57 °FRain. Partly sunny.No wind94%30.27 "HgN/A
6:50 AM55 °FPassing clouds.3 mph100%30.24 "HgN/A
6:20 AM54 °FFog.7 mph100%30.24 "HgN/A
5:50 AM54 °FClear.5 mph100%30.24 "Hg10 mi
5:20 AM55 °FClear.2 mph100%30.24 "Hg10 mi
4:50 AM57 °FClear.2 mph88%30.24 "Hg10 mi
4:20 AM57 °FPassing clouds.3 mph94%30.24 "HgN/A
3:50 AM57 °FPartly cloudy.2 mph94%30.24 "HgN/A
3:20 AM57 °FPartly cloudy.2 mph94%30.24 "HgN/A
Weather by CustomWeather, © 2016

See weather overviewHow to use our weather pages